This demonstration page uses our WeatherBlox Daily Observations layout. Learn more.

Left ArrowRight Arrow

39.51506, -84.39828

Hourly Observations for January 1, 2021

Temp ( °F °C ) Dew Point ( °F °C ) Humidity (%) Winds ( mph kmh ) Pressure ( in mb ) Visibility ( mi km ) Precip ( " mm )
12:15 am 00:15 Cloudy 30 -1.1 27 -3 87 87 E 5 7 30.38 1029 7 11 0.00 0.00
12:35 am 00:35 Cloudy 30 -1 27 -2.8 88 88 NE 5 7 30.38 1029 7 11 0.00 0.00
12:55 am 00:55 Cloudy 30 -0.9 28 -2.4 90 90 ENE 8 13 30.36 1028 7 11 0.00 0.00
1:15 am 01:15 Cloudy 31 -0.4 28 -2.5 86 86 E 9 15 30.36 1028 10 16 0.00 0.00
1:35 am 01:35 Cloudy 31 -0.4 27 -2.6 85 85 E 12 19 30.35 1028 10 16 0.00 0.00
1:55 am 01:55 Cloudy 31 -0.4 28 -2.5 86 86 E 10 17 30.34 1027 10 16 0.00 0.00
2:15 am 02:15 Cloudy 31 -0.5 28 -2.4 87 87 ENE 10 17 30.34 1027 10 16 0.00 0.00
2:35 am 02:35 Cloudy 31 -0.4 28 -2.3 87 87 E 7 11 30.36 1028 10 16 0.00 0.00
2:55 am 02:55 Cloudy 31 -0.4 28 -2.2 88 88 ENE 10 17 30.34 1027 10 16 0.00 0.00
3:15 am 03:15 Cloudy 31 -0.3 28 -2.1 88 88 ENE 12 19 30.33 1027 10 16 0.00 0.00
3:35 am 03:35 Cloudy 32 -0.2 28 -2.1 87 87 NE 10 17 30.31 1026 10 16 0.00 0.00
3:55 am 03:55 Cloudy 32 0 28 -2.2 85 85 ENE 9 15 30.32 1027 10 16 0.00 0.00
4:15 am 04:15 Cloudy 32 0 28 -2.1 86 86 ENE 12 19 30.28 1025 10 16 0.00 0.00
4:35 am 04:35 Cloudy 32 0.2 28 -2.2 84 84 ENE 9 15 30.28 1026 10 16 0.00 0.00
4:55 am 04:55 Partly Cloudy 33 0.3 28 -2.2 84 84 ENE 10 17 30.27 1025 10 16 0.00 0.00
5:15 am 05:15 Clear 33 0.3 28 -2.2 84 84 E 10 17 30.26 1025 10 16 0.00 0.00
5:35 am 05:35 Mostly Cloudy 33 0.4 28 -2.2 83 83 ENE 13 20 30.23 1024 10 16 0.00 0.00
5:55 am 05:55 Cloudy with Light Rain 33 0.3 29 -1.8 86 86 E 14 22 30.23 1024 10 16 0.00 0.00
6:15 am 06:15 Cloudy with Light Rain 33 0.3 29 -1.4 89 89 ENE 12 19 30.22 1024 10 16 0.00 0.00
6:35 am 06:35 Cloudy with Light Rain 33 0.3 29 -1.4 89 89 ENE 12 19 30.22 1024 10 16 0.00 0.00
6:55 am 06:55 Cloudy with Light Rain 32 0.2 30 -1.1 91 91 ENE 12 19 30.19 1023 7 11 0.00 0.00
7:15 am 07:15 Cloudy with Light Rain 33 0.3 31 -0.8 92 92 ENE 9 15 30.20 1023 7 11 0.02 0.51
7:35 am 07:35 Cloudy with Rain 32 0.2 31 -0.7 94 94 NE 10 17 30.18 1022 5 8 0.04 1.02
7:55 am 07:55 Cloudy with Light Wintry Mix 32 0.2 31 -0.4 96 96 NE 12 19 30.14 1021 4 6 0.08 2.03
8:15 am 08:15 Cloudy with Light Rain 33 0.3 32 -0.2 96 96 NE 12 19 30.13 1020 4 6 0.01 0.25
8:35 am 08:35 Cloudy with Rain 33 0.4 32 0 97 97 NE 10 17 30.11 1020 3 5 0.04 1.02
8:55 am 08:55 Cloudy with Rain 33 0.6 32 0.2 97 97 ENE 7 11 30.14 1021 3 5 0.09 2.29
9:15 am 09:15 Cloudy with Light Snow 33 0.6 33 0.4 99 99 NE 8 13 30.12 1020 1 2 0.11 2.79
9:35 am 09:35 Cloudy with Light Snow 33 0.6 33 0.5 99 99 ENE 7 11 30.11 1020 2 2 0.24 6.10
9:55 am 09:55 Cloudy with Light Rain 33 0.8 33 0.8 100 100 E 9 15 30.08 1019 3 4 0.28 7.11
10:15 am 10:15 Cloudy with Light Rain 34 1.1 34 1 99 99 E 12 19 30.07 1018 3 4 0.02 0.51
10:35 am 10:35 Cloudy with Light Snow 34 1.3 34 1.1 99 99 NE 10 17 30.05 1018 1 2 0.10 2.54
10:55 am 10:55 Cloudy with Light Snow 35 1.5 35 1.4 99 99 E 7 11 30.04 1017 2 2 0.18 4.57
11:15 am 11:15 Cloudy with Light Snow 35 1.6 35 1.5 99 99 ENE 12 19 30.00 1016 2 3 0.06 1.52
11:35 am 11:35 Cloudy with Light Rain 35 1.7 35 1.7 100 100 ENE 8 13 29.99 1016 4 6 0.08 2.03
11:55 am 11:55 Cloudy with Rain 36 2 35 1.9 99 99 NE 7 11 29.97 1015 3 5 0.15 3.81
12:15 pm 12:15 Cloudy with Light Rain 36 2.3 36 2.3 100 100 ENE 6 9 29.94 1014 2 3 0.07 1.78
12:35 pm 12:35 Cloudy with Light Rain 36 2 36 2 100 100 ENE 6 9 29.92 1013 2 3 0.17 4.32
12:55 pm 12:55 Cloudy with Light Rain 37 3 N/A N/A Calm 29.92 1013 2 3 0.23 5.84
1:15 pm 13:15 Cloudy with Light Rain 37 3 N/A N/A Calm 29.90 1012 5 8 0.01 0.25
1:35 pm 13:35 Cloudy 37 3 N/A N/A Calm 29.90 1012 10 16 0.01 0.25
1:55 pm 13:55 Cloudy 39 4 N/A N/A NNE 6 9 29.87 1012 10 16 0.01 0.25
2:15 pm 14:15 Cloudy 39 4 N/A N/A NE 7 11 29.86 1011 10 16 0.00 0.00
2:35 pm 14:35 Cloudy 41 5 N/A N/A NE 5 7 29.85 1011 10 16 0.00 0.00
2:55 pm 14:55 Cloudy 41 4.8 40 4.7 99 99 NE 6 9 29.83 1010 10 16 0.00 0.00
3:15 pm 15:15 Cloudy 41 4.9 41 4.8 99 99 NNE 5 7 29.83 1010 10 16 0.00 0.00
3:35 pm 15:35 Mostly Cloudy 42 5.4 42 5.3 99 99 NE 7 11 29.81 1009 10 16 0.00 0.00
3:55 pm 15:55 Cloudy 42 5.6 42 5.4 99 99 NE 6 9 29.80 1009 10 16 0.00 0.00
4:15 pm 16:15 Partly Cloudy 42 5.8 42 5.5 98 98 NNE 6 9 29.79 1009 10 16 0.00 0.00
4:35 pm 16:35 Cloudy 43 6.1 43 6 99 99 Calm 29.78 1008 10 16 0.00 0.00
4:55 pm 16:55 Mostly Cloudy 43 5.9 42 5.8 99 99 Calm 29.77 1008 10 16 0.00 0.00
5:15 pm 17:15 Cloudy 42 5.8 42 5.8 100 100 Calm 29.76 1008 10 16 0.00 0.00
5:35 pm 17:35 Cloudy 43 6 43 6 100 100 NE 3 6 29.75 1007 10 16 0.00 0.00
5:55 pm 17:55 Partly Cloudy 43 6 N/A N/A N 5 7 29.73 1007 10 16 0.00 0.00
6:15 pm 18:15 Mostly Cloudy 43 6 N/A N/A NNE 5 7 29.72 1006 10 16 0.00 0.00
6:35 pm 18:35 Mostly Cloudy 41 5 N/A N/A NNE 3 6 29.71 1006 10 16 0.00 0.00
6:55 pm 18:55 Cloudy 43 6 N/A N/A W 23 37 29.74 1007 10 16 0.01 0.25
7:15 pm 19:15 Cloudy with Light Rain 50 9.8 49 9.7 99 99 WSW 12 19 29.74 1007 10 16 0.03 0.76
7:35 pm 19:35 Cloudy 48 9.1 47 8.6 97 97 W 14 22 29.76 1008 10 16 0.03 0.76
7:55 pm 19:55 Cloudy 48 8.9 47 8.2 95 95 W 10 17 29.76 1008 10 16 0.03 0.76
8:15 pm 20:15 Cloudy 48 9.1 47 8.2 94 94 W 21 33 29.77 1008 10 16 0.00 0.00
8:35 pm 20:35 Cloudy 48 8.7 46 7.9 95 95 W 13 20 29.78 1009 10 16 0.00 0.00
8:55 pm 20:55 Cloudy 47 8.6 46 7.5 93 93 W 14 22 29.78 1009 10 16 0.00 0.00
9:15 pm 21:15 Cloudy 47 8.5 45 7.2 92 92 WSW 9 15 29.79 1009 10 16 0.00 0.00
9:35 pm 21:35 Cloudy 47 8.6 44 6.9 89 89 SW 12 19 29.80 1009 10 16 0.00 0.00
9:55 pm 21:55 Cloudy 47 8.2 44 6.7 90 90 SW 10 17 29.79 1009 10 16 0.00 0.00
10:15 pm 22:15 Cloudy 47 8.4 43 6.3 87 87 SW 23 37 29.81 1010 10 16 0.00 0.00
10:35 pm 22:35 Cloudy 47 8.5 42 5.8 83 83 WSW 20 31 29.82 1010 10 16 0.00 0.00
10:55 pm 22:55 Cloudy 47 8.4 42 5.6 83 83 SW 21 33 29.82 1010 10 16 0.00 0.00
11:15 pm 23:15 Cloudy 47 8.3 42 5.4 82 82 WSW 22 35 29.84 1011 10 16 0.00 0.00
11:35 pm 23:35 Cloudy 46 8 42 5.4 84 84 SW 14 22 29.84 1011 10 16 0.00 0.00
11:55 pm 23:55 Cloudy 46 7.9 41 5.2 83 83 WSW 21 33 29.86 1011 10 16 0.00 0.00

Powered by AerisWeather